DW4879 Weather Reports


Display with metric or nautical units.
time (UTC)temp
F
wind
direction
speed
MPH
gust
MPH
rain 1hr
in
rain 24hr
in
rain mn
in
humidity
%
barometer
mb
20260902212503 85 218 7.0 14.0 0.00 0.00 0.00 27 1022.1
20260902212101 84 160 3.0 10.0 0.00 0.00 0.00 29 1022.1
20260902211503 83 184 6.0 15.0 0.00 0.00 0.00 29 1022.2
20260902211101 83 175 7.0 15.0 0.00 0.00 0.00 29 1022.3
20260902210552 84 187 7.0 15.0 0.00 0.00 0.00 29 1022.4
20260902210100 84 167 9.0 15.0 0.00 0.00 0.00 29 1022.4
20260902205550 84 192 6.0 11.0 0.00 0.00 0.00 29 1022.4
20260902205058 84 228 5.0 13.0 0.00 0.00 0.00 30 1022.6
20260902204503 83 201 7.0 13.0 0.00 0.00 0.00 30 1022.6
20260902204009 84 119 3.0 10.0 0.00 0.00 0.00 30 1022.7
20260902203604 84 163 1.0 10.0 0.00 0.00 0.00 30 1022.8
20260902203008 84 260 1.0 15.0 0.00 0.00 0.00 30 1022.9
20260902202604 84 198 5.0 15.0 0.00 0.00 0.00 30 1022.9
20260902202056 85 200 5.0 11.0 0.00 0.00 0.00 30 1023.0
20260902201605 84 182 3.0 6.0 0.00 0.00 0.00 30 1023.0
20260902201057 83 302 3.0 7.0 0.00 0.00 0.00 30 1023.1
20260902200604 84 302 3.0 7.0 0.00 0.00 0.00 30 1023.1
20260902200055 84 218 1.0 9.0 0.00 0.00 0.00 29 1023.2
20260902195548 85 321 1.0 9.0 0.00 0.00 0.00 29 1023.3
20260902195054 84 213 3.0 12.0 0.00 0.00 0.00 30 1023.3
20260902194600 84 304 6.0 12.0 0.00 0.00 0.00 30 1023.4
20260902194004 84 259 0.0 6.0 0.00 0.00 0.00 29 1023.5
20260902193604 83 288 1.0 8.0 0.00 0.00 0.00 30 1023.6
20260902193005 83 292 4.0 14.0 0.00 0.00 0.00 30 1023.7
20260902192602 83 230 3.0 14.0 0.00 0.00 0.00 30 1023.7
20260902192052 84 310 2.0 4.0 0.00 0.00 0.00 29 1023.8
20260902191610 84 323 1.0 9.0 0.00 0.00 0.00 28 1023.9
20260902191003 85 209 3.0 10.0 0.00 0.00 0.00 28 1023.9
20260902190511 85 311 3.0 10.0 0.00 0.00 0.00 27 1024.0
20260902190105 85 207 5.0 11.0 0.00 0.00 0.00 29 1024.0
20260902185555 84 230 4.0 14.0 0.00 0.00 0.00 30 1024.1
20260902185101 84 210 6.0 14.0 0.00 0.00 0.00 30 1024.2
20260902184557 83 277 2.0 8.0 0.00 0.00 0.00 31 1024.2
20260902184104 83 302 2.0 13.0 0.00 0.00 0.00 31 1024.3
20260902183600 82 236 3.0 13.0 0.00 0.00 0.00 32 1024.5
20260902183045 83 323 5.0 8.0 0.00 0.00 0.00 29 1024.5
20260902182554 83 215 4.0 11.0 0.00 0.00 0.00 30 1024.6
20260902182104 82 286 3.0 11.0 0.00 0.00 0.00 31 1024.6
20260902181504 83 275 2.0 7.0 0.00 0.00 0.00 31 1024.7
20260902181101 82 206 3.0 7.0 0.00 0.00 0.00 32 1024.8
20260902180503 82 287 1.0 8.0 0.00 0.00 0.00 32 1024.9
20260902180018 82 142 3.0 8.0 0.00 0.00 0.00 30 1025.0
20260902175526 82 190 4.0 8.0 0.00 0.00 0.00 34 1025.0
20260902175035 81 237 2.0 9.0 0.00 0.00 0.00 33 1025.0
20260902174552 81 169 2.0 9.0 0.00 0.00 0.00 33 1025.0
20260902174052 81 263 2.0 7.0 0.00 0.00 0.00 34 1025.1
20260902173556 80 192 4.0 7.0 0.00 0.00 0.00 35 1025.0
20260902173103 80 229 2.0 6.0 0.00 0.00 0.00 35 1025.1
20260902172506 79 204 2.0 6.0 0.00 0.00 0.00 36 1025.1
20260902172100 79 252 2.0 6.0 0.00 0.00 0.00 36 1025.1
20260902171504 79 92 2.0 7.0 0.00 0.00 0.00 37 1025.2
20260902171100 78 78 2.0 7.0 0.00 0.00 0.00 36 1025.1
20260902170550 78 153 4.0 7.0 0.00 0.00 0.00 38 1025.2
20260902170059 78 148 2.0 5.0 0.00 0.00 0.00 38 1025.3
20260902165501 77 180 3.0 7.0 0.00 0.00 0.00 37 1025.4
20260902165009 77 154 4.0 7.0 0.00 0.00 0.00 37 1025.3
20260902164517 77 209 1.0 6.0 0.00 0.00 0.00 38 1025.3
20260902164027 76 136 3.0 5.0 0.00 0.00 0.00 38 1025.4
20260902163533 76 207 2.0 4.0 0.00 0.00 0.00 38 1025.4
20260902163041 75 209 2.0 4.0 0.00 0.00 0.00 40 1025.3
20260902162532 75 67 1.0 7.0 0.00 0.00 0.00 41 1025.3
20260902162041 74 179 1.0 7.0 0.00 0.00 0.00 41 1025.4
20260902161548 74 157 3.0 7.0 0.00 0.00 0.00 41 1025.3
20260902161055 74 183 2.0 6.0 0.00 0.00 0.00 42 1025.3
20260902160548 73 138 3.0 7.0 0.00 0.00 0.00 42 1025.3
20260902160058 73 159 3.0 8.0 0.00 0.00 0.00 42 1025.2
20260902155605 72 125 4.0 8.0 0.00 0.00 0.00 43 1025.3
20260902155009 72 132 2.0 8.0 0.00 0.00 0.00 44 1025.3
20260902154610 71 85 2.0 8.0 0.00 0.00 0.00 44 1025.3
20260902154006 71 98 2.0 9.0 0.00 0.00 0.00 45 1025.4
20260902153602 70 100 3.0 8.0 0.00 0.00 0.00 45 1025.4
20260902153055 70 88 3.0 9.0 0.00 0.00 0.00 45 1025.4
20260902152603 69 85 4.0 9.0 0.00 0.00 0.00 45 1025.5
20260902152057 69 96 4.0 7.0 0.00 0.00 0.00 45 1025.5
20260902151547 68 101 3.0 7.0 0.00 0.00 0.00 47 1025.4
20260902151057 68 129 2.0 7.0 0.00 0.00 0.00 46 1025.5
20260902150547 67 123 4.0 8.0 0.00 0.00 0.00 46 1025.5
20260902150037 67 133 3.0 8.0 0.00 0.00 0.00 46 1025.5
20260902145545 66 111 4.0 8.0 0.00 0.00 0.00 46 1025.5
20260902145052 66 126 4.0 8.0 0.00 0.00 0.00 46 1025.4
20260902144559 65 100 5.0 9.0 0.00 0.00 0.00 47 1025.4
20260902144106 65 131 5.0 8.0 0.00 0.00 0.00 47 1025.4
20260902143508 64 126 3.0 9.0 0.00 0.00 0.00 47 1025.3
20260902143102 64 133 6.0 9.0 0.00 0.00 0.00 47 1025.3
20260902142505 64 123 3.0 8.0 0.00 0.00 0.00 48 1025.3
20260902142102 64 90 3.0 8.0 0.00 0.00 0.00 47 1025.3
20260902141507 63 126 3.0 8.0 0.00 0.00 0.00 48 1025.2
20260902141013 63 130 4.0 8.0 0.00 0.00 0.00 49 1025.1
20260902140520 62 67 3.0 9.0 0.00 0.00 0.00 50 1025.1
20260902140108 62 103 4.0 9.0 0.00 0.00 0.00 50 1025.0
20260902135506 61 92 4.0 9.0 0.00 0.00 0.00 52 1025.0
20260902135102 60 103 4.0 9.0 0.00 0.00 0.00 54 1025.0
20260902134504 59 117 4.0 9.0 0.00 0.00 0.00 55 1024.9
20260902134100 59 90 5.0 9.0 0.00 0.00 0.00 55 1024.9
20260902133605 59 92 5.0 9.0 0.00 0.00 0.00 55 1024.8
20260902133009 58 90 5.0 9.0 0.00 0.00 0.00 55 1024.8
20260902132504 58 113 5.0 9.0 0.00 0.00 0.00 55 1024.9
20260902132009 58 72 5.0 8.0 0.00 0.00 0.00 56 1024.9
20260902131502 58 96 4.0 7.0 0.00 0.00 0.00 56 1024.8
20260902131057 58 94 5.0 7.0 0.00 0.00 0.00 56 1024.8
20260902130606 57 84 4.0 8.0 0.00 0.00 0.00 56 1024.8
20260902130057 57 106 3.0 8.0 0.00 0.00 0.00 56 1024.7
20260902125606 57 79 4.0 10.0 0.00 0.00 0.00 56 1024.6
20260902125057 57 98 4.0 10.0 0.00 0.00 0.00 57 1024.6
20260902124547 57 94 4.0 8.0 0.00 0.00 0.00 57 1024.3
20260902124054 57 101 4.0 8.0 0.00 0.00 0.00 57 1024.5
20260902123603 57 86 4.0 7.0 0.00 0.00 0.00 57 1024.4
20260902123006 57 98 5.0 8.0 0.00 0.00 0.00 57 1024.4
20260902122600 57 100 3.0 6.0 0.00 0.00 0.00 58 1024.5
20260902122003 57 98 3.0 6.0 0.00 0.00 0.00 60 1024.4
20260902121600 57 108 3.0 6.0 0.00 0.00 0.00 62 1024.3
20260902121004 57 100 3.0 6.0 0.00 0.00 0.00 62 1024.3
20260902120602 57 107 3.0 6.0 0.00 0.00 0.00 62 1024.2
20260902120051 57 113 3.0 6.0 0.00 0.00 0.00 62 1024.3
20260902115559 57 118 4.0 6.0 0.00 0.00 0.00 61 1024.4
20260902115003 57 110 3.0 5.0 0.00 0.00 0.00 60 1024.4
20260902114512 57 101 3.0 5.0 0.00 0.00 0.00 59 1024.3
20260902114002 57 96 2.0 4.0 0.00 0.00 0.00 58 1024.4
20260902113509 57 121 3.0 6.0 0.00 0.00 0.00 58 1024.5
20260902113001 57 114 3.0 6.0 0.00 0.00 0.00 58 1024.3
20260902112557 57 108 3.0 6.0 0.00 0.00 0.00 59 1024.3
20260902112105 57 106 2.0 6.0 0.00 0.00 0.00 58 1024.2
20260902111601 57 101 3.0 8.0 0.00 0.00 0.00 57 1024.3
20260902111047 58 126 5.0 7.0 0.00 0.00 0.00 58 1024.3
20260902110557 58 89 2.0 7.0 0.00 0.00 0.00 57 1024.0
20260902105504 57 91 5.0 7.0 0.00 0.00 0.00 57 1023.9
20260902105059 57 112 4.0 7.0 0.00 0.00 0.00 58 1023.9
20260902104503 57 110 4.0 7.0 0.00 0.00 0.00 58 1024.0
20260902104101 57 103 5.0 7.0 0.00 0.00 0.00 58 1024.1
20260902103504 58 127 4.0 6.0 0.00 0.00 0.00 58 1024.1
20260902103116 58 117 4.0 6.0 0.00 0.00 0.00 58 1024.0
20260902102553 58 109 4.0 6.0 0.00 0.00 0.00 57 1023.9
20260902102059 59 115 3.0 6.0 0.00 0.00 0.00 57 1024.0
20260902101503 59 146 3.0 6.0 0.00 0.00 0.00 57 1024.0
20260902101009 59 137 3.0 5.0 0.00 0.00 0.00 56 1024.0
20260902100517 60 146 3.0 5.0 0.00 0.00 0.00 55 1023.9
20260902100126 60 131 3.0 6.0 0.00 0.00 0.00 54 1023.8
20260902095553 61 134 2.0 6.0 0.00 0.00 0.00 54 1023.8
20260902095101 61 107 3.0 6.0 0.00 0.00 0.00 52 1023.8
20260902094504 61 102 2.0 4.0 0.00 0.00 0.00 52 1023.7
20260902094101 61 106 3.0 4.0 0.00 0.00 0.00 52 1023.7
20260902093504 62 111 3.0 4.0 0.00 0.00 0.00 51 1023.8
20260902093114 62 97 2.0 4.0 0.00 0.00 0.00 51 1023.8
20260902092550 62 92 1.0 3.0 0.00 0.00 0.00 51 1023.7
20260902092058 62 102 2.0 4.0 0.00 0.00 0.00 50 1023.8
20260902091501 62 29 2.0 3.0 0.00 0.00 0.00 50 1023.8
20260902091009 62 29 1.0 4.0 0.00 0.00 0.00 50 1023.7
20260902090516 62 28 2.0 5.0 0.00 0.00 0.00 50 1023.7
20260902090028 62 34 3.0 4.0 0.00 0.00 0.00 52 1023.8
20260902085531 62 42 2.0 4.0 0.00 0.00 0.00 52 1023.8
20260902085041 62 38 2.0 4.0 0.00 0.00 0.00 54 1023.8
20260902084548 62 34 2.0 3.0 0.00 0.00 0.00 54 1023.8
20260902084058 62 34 1.0 2.0 0.00 0.00 0.00 54 1023.8
20260902083546 62 34 1.0 2.0 0.00 0.00 0.00 52 1023.8
20260902083057 62 34 1.0 1.0 0.00 0.00 0.00 50 1023.8
20260902082549 63 34 0.0 2.0 0.00 0.00 0.00 49 1023.9
20260902082037 63 34 1.0 2.0 0.00 0.00 0.00 50 1023.9
20260902081548 63 34 2.0 2.0 0.00 0.00 0.00 50 1023.9
20260902081053 63 23 0.0 2.0 0.00 0.00 0.00 51 1023.9
20260902080601 63 319 0.0 2.0 0.00 0.00 0.00 50 1024.0
20260902080055 63 212 0.0 2.0 0.00 0.00 0.00 49 1024.0
20260902075600 63 212 0.0 2.0 0.00 0.00 0.00 49 1024.0
20260902075005 63 246 0.0 3.0 0.00 0.00 0.00 48 1024.2
20260902074514 63 158 1.0 3.0 0.00 0.00 0.00 47 1024.1
20260902074003 63 30 0.0 3.0 0.00 0.00 0.00 46 1023.9
20260902073557 63 30 1.0 3.0 0.00 0.00 0.00 47 1023.9
20260902073001 62 30 1.0 2.0 0.00 0.00 0.00 47 1023.9
20260902072602 62 30 0.0 3.0 0.00 0.00 0.00 47 1023.9
20260902072002 62 30 1.0 3.0 0.00 0.00 0.00 48 1023.8
20260902071603 62 30 1.0 3.0 0.00 0.00 0.00 49 1023.8
20260902071005 62 13 1.0 2.0 0.00 0.00 0.00 51 1023.9
20260902070513 62 360 1.0 3.0 0.00 0.00 0.00 51 1023.9
20260902070104 62 360 1.0 3.0 0.00 0.00 0.00 51 1023.9
20260902065507 62 333 0.0 2.0 0.00 0.00 0.00 51 1023.9
20260902065015 63 325 0.0 6.0 0.00 0.00 0.00 51 1023.9
20260902064525 63 351 2.0 8.0 0.00 0.00 0.00 50 1023.9
20260902064032 63 333 3.0 8.0 0.00 0.00 0.00 50 1023.8
20260902063539 64 321 4.0 12.0 0.00 0.00 0.00 49 1023.9
20260902063047 65 281 2.0 12.0 0.00 0.00 0.00 49 1023.8
20260902062559 66 277 3.0 6.0 0.00 0.00 0.00 48 1023.8
20260902062046 66 125 2.0 3.0 0.00 0.00 0.00 46 1023.6
20260902061615 66 108 1.0 3.0 0.00 0.00 0.00 44 1023.5
20260902061104 67 140 1.0 3.0 0.00 0.00 0.00 43 1023.6
20260902060503 67 143 1.0 4.0 0.00 0.00 0.00 43 1023.6
20260902060059 67 131 2.0 4.0 0.00 0.00 0.00 42 1023.6
20260902055601 67 110 2.0 3.0 0.00 0.00 0.00 41 1023.6
20260902055006 67 103 2.0 3.0 0.00 0.00 0.00 41 1023.6
20260902054602 67 61 1.0 3.0 0.00 0.00 0.00 41 1023.6
20260902054005 68 39 0.0 2.0 0.00 0.00 0.00 42 1023.6
20260902053603 68 39 0.0 4.0 0.00 0.00 0.00 42 1023.6
20260902053007 67 60 2.0 5.0 0.00 0.00 0.00 40 1023.5
20260902052602 67 57 3.0 5.0 0.00 0.00 0.00 40 1023.6
20260902052058 67 55 2.0 5.0 0.00 0.00 0.00 42 1023.5
20260902051545 68 101 2.0 5.0 0.00 0.00 0.00 42 1023.5
20260902051053 68 57 1.0 4.0 0.00 0.00 0.00 41 1023.5
20260902050546 68 51 1.0 4.0 0.00 0.00 0.00 41 1023.5
20260902050054 68 28 2.0 4.0 0.00 0.00 0.00 41 1023.4
20260902045601 68 19 3.0 5.0 0.00 0.00 0.00 41 1023.3
20260902045004 68 30 3.0 5.0 0.00 0.00 0.00 41 1023.4
20260902044559 68 24 2.0 5.0 0.00 0.00 0.00 40 1023.4
20260902044002 69 21 2.0 5.0 0.00 0.00 0.00 40 1023.4
20260902043559 69 35 2.0 5.0 0.00 0.00 0.00 41 1023.3
20260902043052 69 19 2.0 5.0 0.00 0.00 0.00 40 1023.4
20260902042557 69 13 3.0 6.0 0.00 0.00 0.00 40 1023.4
20260902042050 69 24 3.0 6.0 0.00 0.00 0.00 40 1023.4
20260902041616 69 24 2.0 4.0 0.00 0.00 0.00 41 1023.3
20260902041105 69 22 2.0 4.0 0.00 0.00 0.00 40 1023.3
20260902040508 70 24 1.0 4.0 0.00 0.00 0.00 40 1023.2
20260902040001 70 19 2.0 4.0 0.00 0.00 0.00 40 1023.3
20260902035509 70 21 2.0 3.0 0.00 0.00 0.00 40 1023.2
20260902035105 70 24 2.0 3.0 0.00 0.00 0.00 40 1023.2
20260902034558 71 30 2.0 4.0 0.00 0.00 0.00 39 1023.2
20260902034001 71 17 2.0 3.0 0.00 0.00 0.00 39 1023.1
20260902033558 71 19 2.0 5.0 0.00 0.00 0.00 39 1023.1
20260902033051 72 30 2.0 5.0 0.00 0.00 0.00 39 1023.1
20260902032557 72 25 2.0 6.0 0.00 0.00 0.00 39 1023.1
20260902032050 72 33 3.0 6.0 0.00 0.00 0.00 39 1023.0
20260902031614 72 36 2.0 4.0 0.00 0.00 0.00 42 1023.0
20260902031001 72 28 2.0 4.0 0.00 0.00 0.00 42 1023.0
20260902030508 73 347 0.0 2.0 0.00 0.00 0.00 41 1022.8
20260902030103 73 347 0.0 2.0 0.00 0.00 0.00 41 1022.9
20260902025507 74 347 0.0 2.0 0.00 0.00 0.00 42 1022.9
20260902025014 74 347 1.0 2.0 0.00 0.00 0.00 43 1022.8
20260902024533 74 255 0.0 2.0 0.00 0.00 0.00 40 1022.7
20260902024030 74 255 0.0 2.0 0.00 0.00 0.00 39 1022.7
20260902023538 75 255 0.0 2.0 0.00 0.00 0.00 40 1022.7
20260902023059 75 255 0.0 2.0 0.00 0.00 0.00 39 1022.6
20260902022553 75 255 0.0 2.0 0.00 0.00 0.00 39 1022.6
20260902022102 75 255 0.0 2.0 0.00 0.00 0.00 39 1022.6
20260902021513 75 255 0.0 3.0 0.00 0.00 0.00 39 1022.5
20260902021102 76 256 1.0 3.0 0.00 0.00 0.00 38 1022.5
20260902020502 76 240 0.0 2.0 0.00 0.00 0.00 38 1022.5
20260902020051 77 231 0.0 2.0 0.00 0.00 0.00 38 1022.5
20260902015558 77 216 0.0 2.0 0.00 0.00 0.00 38 1022.5
20260902015002 77 226 0.0 2.0 0.00 0.00 0.00 37 1022.3
20260902014556 78 226 0.0 2.0 0.00 0.00 0.00 36 1022.4
20260902014105 78 212 0.0 2.0 0.00 0.00 0.00 35 1022.3
20260902013602 78 225 0.0 2.0 0.00 0.00 0.00 35 1022.3
20260902013105 79 252 0.0 2.0 0.00 0.00 0.00 34 1022.3
20260902012557 79 252 1.0 4.0 0.00 0.00 0.00 34 1022.4
20260902012001 79 277 1.0 4.0 0.00 0.00 0.00 33 1022.3
20260902011509 79 285 2.0 5.0 0.00 0.00 0.00 33 1022.3
20260902011103 80 296 2.0 7.0 0.00 0.00 0.00 32 1022.4
20260902010507 80 286 3.0 7.0 0.00 0.00 0.00 32 1022.4
20260902010109 80 259 1.0 4.0 0.00 0.00 0.00 32 1022.4
20260902005553 80 258 1.0 3.0 0.00 0.00 0.00 32 1022.3
20260902005101 81 312 1.0 4.0 0.00 0.00 0.00 32 1022.4
20260902004507 81 263 1.0 7.0 0.00 0.00 0.00 32 1022.4
20260902004015 81 217 2.0 6.0 0.00 0.00 0.00 31 1022.4
20260902003607 81 289 1.0 6.0 0.00 0.00 0.00 31 1022.5
20260902003009 82 278 2.0 8.0 0.00 0.00 0.00 31 1022.5
20260902002604 82 195 2.0 5.0 0.00 0.00 0.00 31 1022.5
20260902002055 81 248 2.0 6.0 0.00 0.00 0.00 31 1022.4
20260902001612 81 251 2.0 6.0 0.00 0.00 0.00 32 1022.5
20260902001054 81 306 1.0 9.0 0.00 0.00 0.00 31 1022.5
20260902000605 81 309 6.0 9.0 0.00 0.00 0.00 31 1022.6
20260902000055 82 297 6.0 10.0 0.00 0.00 0.00 32 1022.6
20260901235545 82 268 4.0 10.0 0.00 0.00 0.00 31 1022.6
20260901235053 82 229 5.0 9.0 0.00 0.00 0.00 31 1022.7
20260901234607 82 301 4.0 12.0 0.00 0.00 0.00 30 1022.7
20260901234004 83 309 5.0 12.0 0.00 0.00 0.00 31 1022.7
20260901233602 83 177 1.0 8.0 0.00 0.00 0.00 31 1022.8
20260901233010 83 178 2.0 11.0 0.00 0.00 0.00 30 1022.8
20260901232604 82 254 4.0 11.0 0.00 0.00 0.00 31 1022.8
20260901232052 83 292 4.0 11.0 0.00 0.00 0.00 31 1022.8
20260901231605 83 280 4.0 11.0 0.00 0.00 0.00 31 1022.9
20260901231055 83 298 2.0 9.0 0.00 0.00 0.00 30 1022.8
20260901230542 83 155 3.0 14.0 0.00 0.00 0.00 29 1022.8
20260901230047 83 324 3.0 14.0 0.00 0.00 0.00 29 1022.9
20260901225556 83 266 2.0 11.0 0.00 0.00 0.00 30 1022.8
20260901225103 83 215 4.0 11.0 0.00 0.00 0.00 30 1022.9
20260901224554 83 304 3.0 8.0 0.00 0.00 0.00 30 1022.9
20260901224101 83 290 2.0 9.0 0.00 0.00 0.00 30 1022.9
20260901223555 83 250 3.0 9.0 0.00 0.00 0.00 29 1022.9
20260901223045 83 287 2.0 8.0 0.00 0.00 0.00 31 1023.0
20260901222552 83 267 5.0 9.0 0.00 0.00 0.00 30 1023.0
20260901222046 84 292 3.0 8.0 0.00 0.00 0.00 31 1023.0
20260901221554 84 171 3.0 9.0 0.00 0.00 0.00 31 1023.0
20260901221100 83 234 5.0 10.0 0.00 0.00 0.00 31 1023.1
20260901220504 83 292 3.0 8.0 0.00 0.00 0.00 32 1023.2
20260901220053 82 256 4.0 8.0 0.00 0.00 0.00 32 1023.1
20260901215601 82 280 4.0 14.0 0.00 0.00 0.00 32 1023.2
20260901215053 82 194 4.0 14.0 0.00 0.00 0.00 32 1023.2
20260901214608 82 292 6.0 10.0 0.00 0.00 0.00 31 1023.2
20260901214053 82 222 1.0 9.0 0.00 0.00 0.00 31 1023.4
20260901213601 81 321 2.0 9.0 0.00 0.00 0.00 32 1023.3
20260901213003 81 257 5.0 9.0 0.00 0.00 0.00 32 1023.4